sat.trackr.live / text

‹ back to catalog

SWARM A

NORAD 39452 · 2013-067B

PAYLOAD ACTIVE UNKNOWN

§ Identity

Operator
Country
ESA
Launch date
2013-11-22
Launch site
PLMSC
Launch vehicle
Mass (kg)
RCS (m²)
2.24

Purposes: science

External: N2YO · Heavens-Above · Gunter

§ Orbital elements

Epoch: 2026-09-20T03:31:40.694592Z

Period
92.85 min
Inclination
87.3356°
Eccentricity
0.0002528
Mean motion
15.50854822 rev/d
Perigee alt
412.5 km
Apogee alt
415.9 km
Semi-major
6,792.4 km
B*
1.4091e-4
RAAN
20.9610°
Arg perigee
102.0142°
Mean anomaly
258.1402°
Rev number
72,096

§ Raw data

SWARM A1 39452U 13067B   26263.14699878  .00008175  00000+0  14091-3 0  99992 39452  87.3356  20.9610 0002528 102.0142 258.1402 15.50854822720968

JSON: /api/v1/satellites/39452 · /tle

For live sub-satellite position, see the globe view (requires WebGL).

§ Visibility from observer

Set your observer location to see the next 7 days of passes ≥ 10°. The values pass through the URL so the page stays shareable.

No JS? Fill the form by hand. The geolocation button needs JavaScript.

§ Radio — SatNOGS DB

ModeDescriptionDownlinkUplink
FM S-Band (2249MHz) 2.249 GHz

1 transmitter · refreshed weekly from db.satnogs.org